Hourly Data Report for April 13, 2021

TORONTO CITY
ONTARIO
Current Station Operator: ECCC - MSC

43°40'00.000" N
79°24'00.000" W
112.50 m
6158355
71508
XTO

Download Data

Hourly Data (April 2021)
Hourly Data Report for April 13, 2021
TIME
LST
Temp Definition
°C
Dew Point Definition
°C
Rel Hum Definition
%
Precip. Amount Definition
mm

Wind Dir Definition
10's deg

Wind Spd Definition
km/h
Visibility Definition
km
Stn Press Definition
kPa
Hmdx Definition


Wind Chill Definition


Weather Definition


00:00 8.3 7.0 92 0.0       100.06     LegendNANA
01:00 8.6 6.8 88 0.0       100.06     LegendNANA
02:00 8.6 6.8 88 0.0       100.09     LegendNANA
03:00 8.3 6.9 91 0.0       100.10     LegendNANA
04:00 7.7 6.7 93 0.0       100.20     LegendNANA
05:00 7.4 6.7 95 0.0       100.26     LegendNANA
06:00 7.5 6.6 94 0.0       100.25     LegendNANA
07:00 8.2 6.9 91 0.0       100.35     LegendNANA
08:00 9.1 7.0 87 0.0       100.39     LegendNANA
09:00 9.5 7.1 84 0.0       100.40     LegendNANA
10:00 9.2 6.6 84 0.0       100.46     LegendNANA
11:00 9.1 6.6 84 0.0       100.49     LegendNANA
12:00 10.7 7.0 78 0.0       100.48     LegendNANA
13:00 13.1 7.9 71 0.0       100.45     LegendNANA
14:00 12.8 7.3 69 0.0       100.42     LegendNANA
15:00 12.6 7.3 70 0.0       100.37     LegendNANA
16:00 12.2 7.3 72 0.0       100.37     LegendNANA
17:00 12.3 7.2 71 0.0       100.37     LegendNANA
18:00 12.6 7.2 70 0.0       100.38     LegendNANA
19:00 10.1 6.7 79 0.0       100.39     LegendNANA
20:00 8.8 6.3 84 0.0       100.41     LegendNANA
21:00 9.1 6.4 83 0.0       100.43     LegendNANA
22:00 9.3 6.7 84 0.0       100.44     LegendNANA
23:00 8.9 6.5 85 0.0       100.42     LegendNANA

Notes on Data Quality.

Legend

  • E = Estimated
  • M = Missing
  • NA = Not Available*
  • [empty] = Indicates an unobserved value
Date modified: